This is the latest recevied weather packets stored in our database for station/object TF3VP-10. If no packets are shown the sender has not sent any weather packets the latest 10 day(s).
| Time | Temp. | Humidity | Pressure | Rain* | Wind** | Luminosity | Snow |
|---|---|---|---|---|---|---|---|
| 1778208079 | 0° C | 45% | 1036.5 hPa | - | - | - | - |
| 1778207179 | 0° C | 46% | 1036.5 hPa | - | - | - | - |
| 1778206279 | 0° C | 48% | 1036.4 hPa | - | - | - | - |
| 1778205379 | 0° C | 51% | 1036.2 hPa | - | - | - | - |
| 1778204479 | 0° C | 50% | 1036.4 hPa | - | - | - | - |
| 1778203579 | 0° C | 51% | 1036.4 hPa | - | - | - | - |
| 1778202679 | 0.56° C | 50% | 1036.4 hPa | - | - | - | - |
| 1778201779 | 0.56° C | 50% | 1036.1 hPa | - | - | - | - |
| 1778200879 | 0° C | 51% | 1036.2 hPa | - | - | - | - |
| 1778199979 | 0.56° C | 48% | 1036 hPa | - | - | - | - |
| 1778199078 | 0° C | 50% | 1035.9 hPa | - | - | - | - |
| 1778198179 | 0° C | 52% | 1035.7 hPa | - | - | - | - |
| 1778197279 | 0.56° C | 50% | 1035.9 hPa | - | - | - | - |
| 1778196379 | 0.56° C | 49% | 1035.9 hPa | - | - | - | - |
| 1778195479 | 0.56° C | 46% | 1035.9 hPa | - | - | - | - |
| 1778194579 | 0.56° C | 47% | 1036.1 hPa | - | - | - | - |
| 1778193679 | 0.56° C | 45% | 1035.9 hPa | - | - | - | - |
| 1778192779 | 1.11° C | 45% | 1035.9 hPa | - | - | - | - |
| 1778191878 | 1.11° C | 45% | 1035.9 hPa | - | - | - | - |
| 1778190979 | 1.11° C | 45% | 1035.9 hPa | - | - | - | - |
| 1778190079 | 1.67° C | 45% | 1035.8 hPa | - | - | - | - |
| 1778189179 | 1.67° C | 44% | 1035.5 hPa | - | - | - | - |
| 1778188279 | 1.67° C | 43% | 1035.5 hPa | - | - | - | - |
| 1778187379 | 2.22° C | 43% | 1035.4 hPa | - | - | - | - |
| 1778186478 | 2.22° C | 42% | 1035.3 hPa | - | - | - | - |
* Rain since midnight (hover to see other rain measurements)
** Current wind speed in m/s (hover to see current wind gust speed)